Location: Buckland
(65.9785°N, 161.1281°W)
Time: 05:00:01
(UTC+00:00)

Transit 4A - Pass Details

Date: 29 November 2020
Orbit: 864 x 980 km, 66.8° (Epoch: 26 January)

Event Time Altitude Azimuth Distance (km) Brightness Sun altitude
Rises 04:42:16 0° 309° (NW) 3,693 11.7 -20.5°
Reaches altitude 10° 04:46:13 10° 286° (WNW) 2,731 11.3 -20.9°
Maximum altitude 04:49:14 14° 258° (WSW) 2,439 11.1 -21.3°
Drops below altitude 10° 04:52:15 10° 229° (SW) 2,700 11.0 -21.6°
Sets 04:56:07 0° 205° (SSW) 3,619 11.4 -22.0°
